When you browse on this site, cookies collect data to enhance your experience and personalize the content and advertising you see.
Visit our Privacy Policy to learn more. By continuing to use the site, you agree to this use of cookies and data.
  • In Romania
  • List of Countries
  • For 7 days
  • Water Temperature
  • Weather Map
  • Weather Widgets
  • user-avatar
    Login

    Hourly Weather Veszprem

    Today, 23 October, Wednesday

    Time Temperature Precipitation Wind Pressure Humidity
    00:00 +18°C° 0 mm 1 mps 744 mmHg 74%
    01:00 +16°C° 0 mm 1 mps 744 mmHg 75%
    02:00 +16°C° 0 mm 1 mps 743 mmHg 74%
    03:00 +16°C° 0 mm 1 mps 743 mmHg 74%
    04:00 +15°C° 0 mm 1 mps 743 mmHg 73%
    05:00 +15°C° 0 mm 2 mps 743 mmHg 73%
    06:00 +15°C° 0 mm 2 mps 743 mmHg 72%
    07:00 +15°C° 0 mm 2 mps 743 mmHg 71%
    08:00 +17°C° 0 mm 2 mps 743 mmHg 63%
    09:00 +19°C° 0 mm 2 mps 743 mmHg 56%
    10:00 +21°C° 0 mm 3 mps 743 mmHg 48%
    11:00 +22°C° 0 mm 3 mps 743 mmHg 44%
    12:00 +24°C° 0 mm 3 mps 742 mmHg 40%
    13:00 +26°C° 0 mm 3 mps 742 mmHg 36%
    14:00 +25°C° 0 mm 3 mps 741 mmHg 38%
    15:00 +24°C° 0 mm 3 mps 741 mmHg 40%
    16:00 +22°C° 0 mm 3 mps 741 mmHg 42%
    17:00 +21°C° 0 mm 3 mps 740 mmHg 45%
    18:00 +19°C° 0 mm 3 mps 740 mmHg 48%
    19:00 +18°C° 0 mm 3 mps 740 mmHg 51%
    20:00 +18°C° 0 mm 3 mps 740 mmHg 52%
    21:00 +17°C° 0 mm 2 mps 740 mmHg 54%
    22:00 +16°C° 0 mm 2 mps 740 mmHg 55%
    23:00 +16°C° 0 mm 2 mps 740 mmHg 57%

    Tomorrow, 24 October, Thursday

    Time Temperature Precipitation Wind Pressure Humidity
    00:00 +15°C° 0 mm 2 mps 740 mmHg 58%
    01:00 +15°C° 0 mm 2 mps 740 mmHg 60%
    02:00 +15°C° 0 mm 2 mps 739 mmHg 61%
    03:00 +14°C° 0 mm 2 mps 739 mmHg 63%
    04:00 +14°C° 0 mm 2 mps 739 mmHg 65%
    05:00 +14°C° 0 mm 2 mps 739 mmHg 66%
    06:00 +14°C° 0 mm 2 mps 739 mmHg 68%
    07:00 +14°C° 0 mm 2 mps 739 mmHg 70%
    08:00 +16°C° 0 mm 3 mps 739 mmHg 62%
    09:00 +18°C° 0 mm 3 mps 739 mmHg 54%
    10:00 +21°C° 0 mm 4 mps 739 mmHg 46%
    11:00 +22°C° 0 mm 4 mps 739 mmHg 41%
    12:00 +25°C° 0 mm 5 mps 738 mmHg 36%
    13:00 +26°C° 0 mm 6 mps 738 mmHg 31%
    14:00 +25°C° 0 mm 5 mps 738 mmHg 34%
    15:00 +23°C° 0 mm 5 mps 738 mmHg 36%
    16:00 +23°C° 0 mm 4 mps 737 mmHg 38%
    17:00 +21°C° 0 mm 4 mps 737 mmHg 43%
    18:00 +19°C° 0 mm 3 mps 737 mmHg 48%
    19:00 +18°C° 0 mm 3 mps 737 mmHg 52%
    20:00 +17°C° 0 mm 3 mps 738 mmHg 54%
    21:00 +17°C° 0 mm 2 mps 738 mmHg 56%
    22:00 +16°C° 0 mm 2 mps 739 mmHg 58%
    23:00 +16°C° 0 mm 2 mps 739 mmHg 60%

    Day after tomorrow, 25 October, Friday

    Time Temperature Precipitation Wind Pressure Humidity
    00:00 +16°C° 0 mm 2 mps 739 mmHg 62%
    01:00 +15°C° 0 mm 1 mps 739 mmHg 63%
    02:00 +15°C° 0 mm 1 mps 739 mmHg 65%
    03:00 +14°C° 0 mm 1 mps 739 mmHg 67%
    04:00 +13°C° 0 mm 0 mps 740 mmHg 69%
    05:00 +14°C° 0 mm 1 mps 740 mmHg 71%
    06:00 +14°C° 0 mm 2 mps 741 mmHg 74%
    07:00 +13°C° 0 mm 3 mps 741 mmHg 76%
    08:00 +14°C° 0 mm 4 mps 741 mmHg 71%
    09:00 +16°C° 0 mm 5 mps 742 mmHg 66%
    10:00 +17°C° 0 mm 6 mps 742 mmHg 61%
    11:00 +19°C° 0 mm 5 mps 743 mmHg 58%
    12:00 +20°C° 0 mm 5 mps 743 mmHg 56%
    13:00 +21°C° 0 mm 4 mps 743 mmHg 53%
    14:00 +20°C° 0 mm 4 mps 742 mmHg 56%
    15:00 +20°C° 0 mm 3 mps 742 mmHg 59%
    16:00 +19°C° 0 mm 3 mps 742 mmHg 61%
    17:00 +18°C° 0 mm 2 mps 742 mmHg 67%
    18:00 +16°C° 0 mm 2 mps 742 mmHg 73%
    19:00 +15°C° 0 mm 1 mps 743 mmHg 79%
    20:00 +15°C° 0 mm 1 mps 743 mmHg 81%
    21:00 +14°C° 0 mm 1 mps 743 mmHg 83%
    22:00 +13°C° 0 mm 0 mps 743 mmHg 85%
    23:00 +13°C° 0 mm 0 mps 743 mmHg 85%

    26 October, Saturday

    Time Temperature Precipitation Wind Pressure Humidity
    00:00 +12°C° 0 mm 0 mps 742 mmHg 85%
    01:00 +12°C° 0 mm 0 mps 742 mmHg 85%
    02:00 +12°C° 0 mm 0 mps 742 mmHg 86%
    03:00 +13°C° 0 mm 1 mps 742 mmHg 86%
    04:00 +12°C° 0 mm 1 mps 742 mmHg 87%
    05:00 +12°C° 0 mm 1 mps 742 mmHg 87%
    06:00 +12°C° 0 mm 1 mps 742 mmHg 87%
    07:00 +12°C° 0 mm 1 mps 742 mmHg 88%
    08:00 +14°C° 0 mm 1 mps 743 mmHg 79%
    09:00 +16°C° 0 mm 1 mps 743 mmHg 70%
    10:00 +18°C° 0 mm 2 mps 743 mmHg 61%
    11:00 +19°C° 0 mm 2 mps 743 mmHg 57%
    12:00 +20°C° 0 mm 2 mps 743 mmHg 52%
    13:00 +22°C° 0 mm 3 mps 742 mmHg 48%
    14:00 +21°C° 0 mm 2 mps 742 mmHg 51%
    15:00 +20°C° 0 mm 2 mps 741 mmHg 54%
    16:00 +20°C° 0 mm 1 mps 741 mmHg 56%
    17:00 +19°C° 0 mm 1 mps 741 mmHg 61%
    18:00 +18°C° 0 mm 1 mps 741 mmHg 65%
    19:00 +16°C° 0 mm 1 mps 741 mmHg 69%
    20:00 +15°C° 0 mm 1 mps 741 mmHg 71%
    21:00 +15°C° 0 mm 1 mps 741 mmHg 74%
    22:00 +14°C° 0 mm 1 mps 741 mmHg 76%
    23:00 +14°C° 0 mm 1 mps 741 mmHg 78%

    27 October, Sunday

    Time Temperature Precipitation Wind Pressure Humidity
    00:00 +14°C° 0 mm 1 mps 741 mmHg 80%
    01:00 +13°C° 0 mm 1 mps 741 mmHg 82%
    02:00 +13°C° 0 mm 1 mps 741 mmHg 83%
    03:00 +13°C° 0 mm 1 mps 740 mmHg 84%
    04:00 +12°C° 0 mm 1 mps 740 mmHg 85%
    05:00 +12°C° 0 mm 1 mps 740 mmHg 85%
    06:00 +12°C° 0 mm 1 mps 740 mmHg 85%
    07:00 +12°C° 0 mm 1 mps 741 mmHg 85%
    08:00 +15°C° 0 mm 2 mps 741 mmHg 73%
    09:00 +17°C° 0 mm 3 mps 741 mmHg 62%
    10:00 +19°C° 0 mm 4 mps 742 mmHg 51%
    11:00 +20°C° 0 mm 5 mps 741 mmHg 49%
    12:00 +21°C° 0 mm 6 mps 741 mmHg 46%
    13:00 +21°C° 0 mm 7 mps 741 mmHg 44%
    14:00 +20°C° 0 mm 6 mps 741 mmHg 47%
    15:00 +19°C° 0 mm 4 mps 741 mmHg 50%
    16:00 +19°C° 0 mm 3 mps 741 mmHg 53%
    17:00 +18°C° 0 mm 3 mps 742 mmHg 57%
    18:00 +16°C° 0 mm 3 mps 742 mmHg 61%
    19:00 +14°C° 0 mm 3 mps 742 mmHg 65%
    20:00 +13°C° 0 mm 3 mps 743 mmHg 65%
    21:00 +12°C° 0 mm 3 mps 743 mmHg 65%
    22:00 +11°C° 0 mm 3 mps 743 mmHg 65%
    23:00 +11°C° 0 mm 3 mps 743 mmHg 61%

    28 October, Monday

    Time Temperature Precipitation Wind Pressure Humidity
    00:00 +11°C° 0 mm 3 mps 743 mmHg 58%
    01:00 +10°C° 0 mm 2 mps 743 mmHg 54%
    02:00 +10°C° 0 mm 2 mps 743 mmHg 52%
    03:00 +10°C° 0 mm 2 mps 743 mmHg 50%
    04:00 +10°C° 0 mm 2 mps 742 mmHg 49%
    05:00 +10°C° 0.1 mm 2 mps 742 mmHg 53%
    06:00 +9°C° 0.1 mm 2 mps 742 mmHg 57%
    07:00 +9°C° 0.1 mm 2 mps 742 mmHg 61%
    08:00 +8°C° 0.4 mm 2 mps 742 mmHg 67%
    09:00 +8°C° 0.4 mm 2 mps 742 mmHg 73%
    10:00 +8°C° 0.4 mm 1 mps 742 mmHg 78%
    11:00 +8°C° 0.5 mm 1 mps 742 mmHg 81%
    12:00 +8°C° 0.5 mm 1 mps 742 mmHg 83%
    13:00 +8°C° 0.5 mm 1 mps 742 mmHg 86%
    14:00 +9°C° 0.1 mm 1 mps 742 mmHg 86%
    15:00 +9°C° 0.1 mm 1 mps 741 mmHg 86%
    16:00 +9°C° 0.1 mm 1 mps 741 mmHg 86%
    17:00 +9°C° 0 mm 1 mps 741 mmHg 86%
    18:00 +9°C° 0 mm 1 mps 741 mmHg 85%
    19:00 +9°C° 0 mm 1 mps 741 mmHg 85%
    20:00 +9°C° 0 mm 1 mps 741 mmHg 85%
    21:00 +9°C° 0 mm 1 mps 741 mmHg 85%
    22:00 +9°C° 0 mm 1 mps 741 mmHg 85%
    23:00 +9°C° 0.1 mm 1 mps 741 mmHg 86%

    29 October, Tuesday

    Time Temperature Precipitation Wind Pressure Humidity
    00:00 +9°C° 0.1 mm 1 mps 741 mmHg 86%
    01:00 +9°C° 0.1 mm 1 mps 741 mmHg 86%
    02:00 +9°C° 0.1 mm 1 mps 741 mmHg 85%
    03:00 +7°C° 0.1 mm 2 mps 741 mmHg 83%
    04:00 +7°C° 0.1 mm 2 mps 741 mmHg 82%
    05:00 +7°C° 0.2 mm 2 mps 741 mmHg 82%
    06:00 +7°C° 0.2 mm 2 mps 741 mmHg 81%
    07:00 +7°C° 0.2 mm 2 mps 741 mmHg 81%
    08:00 +7°C° 0.2 mm 3 mps 741 mmHg 80%
    09:00 +7°C° 0.2 mm 3 mps 742 mmHg 78%
    10:00 +6°C° 0.2 mm 4 mps 742 mmHg 76%
    11:00 +6°C° 0.2 mm 4 mps 742 mmHg 73%
    12:00 +7°C° 0.2 mm 4 mps 742 mmHg 69%
    13:00 +7°C° 0.2 mm 4 mps 742 mmHg 66%
    14:00 +7°C° 0.1 mm 4 mps 742 mmHg 64%
    15:00 +7°C° 0.1 mm 4 mps 742 mmHg 63%
    16:00 +8°C° 0.1 mm 3 mps 742 mmHg 62%
    17:00 +7°C° 0 mm 4 mps 743 mmHg 62%
    18:00 +6°C° 0 mm 4 mps 743 mmHg 62%
    19:00 +6°C° 0 mm 4 mps 744 mmHg 62%
    20:00 +6°C° 0 mm 4 mps 744 mmHg 62%
    21:00 +6°C° 0 mm 5 mps 745 mmHg 61%
    22:00 +6°C° 0 mm 5 mps 746 mmHg 60%
    23:00 +5°C° 0 mm 5 mps 746 mmHg 63%
    Show more